This is the latest recevied weather packets stored in our database for station/object KQ4KX. If no packets are shown the sender has not sent any weather packets the latest 10 day(s).
| Time | Temp. | Humidity | Pressure | Rain* | Wind** | Luminosity | Snow |
|---|---|---|---|---|---|---|---|
| 1777923511 | 27.78° C | 61% | 1015 hPa | 0 mm | - | - | - |
| 1777923211 | 28.33° C | 59% | 1015.2 hPa | 0 mm | - | - | - |
| 1777922911 | 27.78° C | 60% | 1015 hPa | 0 mm | - | - | - |
| 1777922611 | 27.78° C | 61% | 1015.2 hPa | 0 mm | - | - | - |
| 1777922311 | 27.78° C | 61% | 1015.3 hPa | 0 mm | - | - | - |
| 1777921683 | 27.78° C | 60% | 1015.4 hPa | 0 mm | - | - | - |
| 1777921382 | 27.78° C | 59% | 1015.3 hPa | 0 mm | - | - | - |
| 1777921051 | 27.78° C | 59% | 1015.5 hPa | 0 mm | - | - | - |
| 1777920751 | 27.22° C | 61% | 1015.6 hPa | 0 mm | - | - | - |
| 1777920452 | 27.22° C | 64% | 1015.6 hPa | 0 mm | - | - | - |
| 1777920151 | 27.22° C | 60% | 1015.8 hPa | 0 mm | - | - | - |
| 1777919821 | 28.33° C | 57% | 1015.9 hPa | 0 mm | - | - | - |
| 1777919521 | 28.89° C | 57% | 1016 hPa | 0 mm | - | - | - |
| 1777919221 | 28.33° C | 56% | 1016 hPa | 0 mm | - | - | - |
| 1777918921 | 27.78° C | 56% | 1016.1 hPa | 0 mm | - | - | - |
| 1777918621 | 27.78° C | 59% | 1016.1 hPa | 0 mm | - | - | - |
| 1777918321 | 27.22° C | 60% | 1016.2 hPa | 0 mm | - | - | - |
| 1777918021 | 27.78° C | 57% | 1016.1 hPa | 0 mm | - | - | - |
| 1777917721 | 27.78° C | 57% | 1016.3 hPa | 0 mm | - | - | - |
| 1777917421 | 27.78° C | 59% | 1016.4 hPa | 0 mm | - | - | - |
| 1777917121 | 27.78° C | 54% | 1016.5 hPa | 0 mm | - | - | - |
| 1777916821 | 27.78° C | 57% | 1016.4 hPa | 0 mm | - | - | - |
| 1777916521 | 27.78° C | 55% | 1016.4 hPa | 0 mm | - | - | - |
| 1777916221 | 27.78° C | 55% | 1016.4 hPa | 0 mm | - | - | - |
| 1777915921 | 27.22° C | 55% | 1016.6 hPa | 0 mm | - | - | - |
* Rain latest hour (hover to see other rain measurements)
** Current wind speed in m/s (hover to see current wind gust speed)